[[{"header":{"parameterUnit":"m.s-1","parameterCategory":1,"la1":30.2991,"la2":30.254,"lo1":-89.0895,"lo2":-89.0444,"dy":0.0017,"dx":0.0017,"nx":28,"ny":28,"refTime":"2025-01-15T03:00:00:Z","depth":0,"parameterNumber":2,"parameterNumberName":"U-component_of_WINDS"},"data":[0,0,0,0,0,0,0,0,0,0,0,0,0,0,0,0,0,0,0,0,0,0,0,0,0,0,0,0,0,0,0,0,0,0,0,0,0,0,0,0,0,0,0,0,0,0,0,0,0,0,0,0,0,0,0,0,0,0,-0.5139,-0.514,0,-0.5237,-0.5238,-0.5239,-0.5233,-0.5231,-0.523,-0.5228,-0.533,-0.5334,-0.5338,0,0,0,0,0,0,0,0,0,0,0,0,0,-0.4947,-0.4951,-0.5139,-0.514,-0.5142,-0.5237,-0.5238,-0.524,-0.5233,-0.5231,-0.5229,-0.5228,-0.5329,-0.5333,-0.5338,0,0,0,0,0,0,0,0,0,0,0,0,0,-0.5036,-0.4952,-0.5139,-0.515,-0.5152,-0.5237,-0.5238,-0.524,-0.5233,-0.5231,-0.5229,-0.5227,-0.5327,-0.5333,-0.5339,-0.542,0,0,-0.5358,-0.536,0,0,0,0,0,0,0,0,-0.5031,-0.5044,-0.5147,-0.5149,-0.5152,-0.522,-0.5208,-0.53,-0.5234,-0.5202,-0.5228,-0.5226,-0.5295,-0.5304,-0.5327,-0.5425,-0.5429,-0.5358,-0.5362,-0.5364,-0.5366,0,0,0,0,0,0,0,-0.5025,-0.5039,-0.5178,-0.5149,-0.5151,-0.515,-0.516,-0.5225,-0.526,-0.5205,-0.5205,-0.5216,-0.5296,-0.5321,-0.5329,-0.5431,-0.5358,-0.5363,-0.5367,-0.5369,-0.56,-0.5602,0,0,0,0,0,0,-0.5017,-0.5034,-0.5175,-0.5181,-0.5085,-0.5155,-0.5167,-0.5201,-0.5259,-0.5266,-0.5218,-0.5216,-0.5312,-0.5322,-0.5333,-0.5433,-0.5364,-0.537,-0.5374,-0.5598,-0.5601,-0.5603,0,0,0,0,0,0,-0.5012,-0.5029,-0.5171,-0.5108,-0.5125,-0.5161,-0.5199,-0.5204,-0.5229,-0.5269,-0.5275,-0.5237,-0.5311,-0.5324,-0.5398,-0.5436,-0.5373,-0.5378,-0.5595,-0.5598,-0.5602,-0.5632,0,0,0,0,0,0,-0.5007,-0.5028,-0.5059,-0.5108,-0.5129,-0.5235,-0.5201,-0.5207,-0.5239,-0.5237,-0.5289,-0.5295,-0.531,-0.5389,-0.5404,-0.5443,-0.5383,-0.5591,-0.5596,-0.5601,-0.5628,-0.5636,-0.5643,0,0,0,0,0,-0.5,-0.5063,-0.506,-0.5077,-0.5168,-0.5237,-0.5249,-0.5264,-0.5242,-0.5274,-0.53,-0.5294,-0.5429,-0.5397,-0.5414,-0.5455,-0.5589,-0.5595,-0.56,-0.5624,-0.5634,-0.5643,0,0,0,0,0,0,-0.5018,-0.507,-0.5067,-0.5149,-0.5188,-0.5236,-0.5276,-0.5274,-0.5321,-0.5317,-0.5334,-0.5346,-0.5421,-0.5445,-0.5409,-0.5537,-0.5506,-0.5515,-0.5518,-0.5529,-0.5536,-0.553,-0.5388,0,0,0,0,0,-0.5031,-0.5082,-0.5125,-0.5193,-0.5213,-0.5241,-0.5271,-0.5279,-0.5321,-0.5338,-0.537,-0.5411,-0.5463,-0.5497,-0.5546,-0.563,-0.5642,-0.5667,-0.5675,-0.5681,-0.5689,-0.5736,-0.5748,-0.5622,-0.5621,-0.5621,0,0,-0.506,-0.5094,-0.5126,-0.5197,-0.5229,-0.5282,-0.5255,-0.5312,-0.5352,-0.5347,-0.5419,-0.5443,-0.549,-0.557,-0.5606,-0.5592,-0.5726,-0.5688,-0.5692,-0.5698,-0.5743,-0.5755,-0.5766,-0.5625,-0.5625,-0.5624,0,0,-0.5139,-0.5169,-0.523,-0.5262,-0.531,-0.5328,-0.5342,-0.539,-0.5406,-0.5478,-0.5476,-0.5523,-0.5611,-0.5645,-0.5674,-0.5765,-0.5762,-0.578,-0.5822,-0.5868,-0.5878,-0.5887,-0.592,-0.5932,-0.5788,-0.5788,-0.5788,0,-0.5168,-0.5247,-0.5261,-0.5318,-0.535,-0.5347,-0.5408,-0.5439,-0.5501,-0.5523,-0.5506,-0.5617,-0.5649,-0.5737,-0.5759,-0.5782,-0.5799,-0.5776,-0.5875,-0.5884,-0.5893,-0.5925,-0.5937,-0.579,-0.579,-0.579,-0.579,0,-0.5282,-0.5336,-0.5379,-0.5439,-0.5475,-0.5534,-0.5557,-0.5592,-0.5596,-0.5616,-0.569,-0.5727,-0.5785,-0.5806,-0.5811,-0.5895,-0.5885,-0.5871,-0.5841,-0.5907,-0.5937,-0.595,-0.5794,-0.5793,-0.5792,-0.5792,0,0,-0.5377,-0.5442,-0.5458,-0.5485,-0.5537,-0.558,-0.5639,-0.5694,-0.5725,-0.5767,-0.5818,-0.5892,-0.588,-0.5912,-0.5921,-0.5961,-0.6032,-0.5943,-0.5944,-0.5959,-0.6127,-0.6138,-0.6152,-0.6029,-0.6031,-0.6033,-0.6124,0,-0.5462,-0.5566,-0.5579,-0.5672,-0.5723,-0.5721,-0.5772,-0.581,-0.583,-0.5876,-0.5898,-0.5951,-0.593,-0.595,-0.5989,-0.6015,-0.6066,-0.6008,-0.6077,-0.6079,-0.6067,-0.6168,-0.6181,-0.6264,-0.6136,-0.6138,-0.6139,0,-0.5576,-0.5621,-0.5719,-0.5764,-0.5786,-0.5832,-0.5884,-0.5928,-0.5971,-0.5983,-0.6019,-0.6023,-0.6084,-0.605,-0.6135,-0.6095,-0.6124,-0.614,-0.6144,-0.6153,-0.6115,-0.6181,-0.6291,-0.6305,-0.6158,-0.6156,-0.6155,0,-0.5637,-0.5722,-0.5792,-0.5815,-0.5869,-0.5902,-0.5926,-0.5966,-0.5999,-0.6044,-0.6066,-0.6118,-0.6147,-0.6187,-0.6205,-0.6178,-0.629,-0.6257,-0.6302,-0.6302,-0.6327,-0.6326,-0.6445,-0.6343,-0.6342,-0.6342,-0.6342,0,-0.5732,-0.5793,-0.582,-0.5864,-0.5931,-0.5945,-0.6011,-0.6034,-0.607,-0.6118,-0.6118,-0.6163,-0.6183,-0.6231,-0.6245,-0.6314,-0.6326,-0.6338,-0.6342,-0.634,-0.6338,-0.636,-0.6356,-0.6346,-0.6345,-0.6344,-0.6344,0,-0.5813,-0.5834,-0.591,-0.5955,-0.5967,-0.6015,-0.6053,-0.6095,-0.6114,-0.6174,-0.6189,-0.6219,-0.6276,-0.6297,-0.6366,-0.6375,-0.6455,-0.6453,-0.6441,-0.6442,-0.6487,-0.6483,-0.6627,-0.6647,-0.6529,-0.653,-0.6531,0,-0.5874,-0.592,-0.5969,-0.6001,-0.6026,-0.6077,-0.611,-0.6126,-0.6161,-0.6212,-0.6248,-0.6304,-0.635,-0.644,-0.6469,-0.6521,-0.6522,-0.6568,-0.653,-0.6526,-0.6524,-0.6522,-0.6528,-0.6576,-0.6577,-0.6578,-0.6579,0,-0.5979,-0.5987,-0.6034,-0.6086,-0.6125,-0.6167,-0.6207,-0.6233,-0.6254,-0.6293,-0.6351,-0.6386,-0.6456,-0.6512,-0.6566,-0.6591,-0.659,-0.659,-0.6604,-0.6603,-0.6595,-0.6602,-0.6463,-0.6588,-0.6587,-0.6586,-0.6586,-0.6585,-0.6053,-0.6094,-0.6135,-0.6188,-0.622,-0.6257,-0.6299,-0.6322,-0.637,-0.6429,-0.6434,-0.6497,-0.6538,-0.661,-0.6638,-0.6687,-0.6674,-0.6694,-0.6699,-0.6704,-0.6708,-0.6585,-0.6696,-0.6696,-0.6696,-0.6696,-0.6696,0,-0.616,-0.6186,-0.6234,-0.629,-0.6332,-0.6325,-0.6368,-0.6404,-0.6459,-0.6497,-0.6542,-0.6608,-0.6663,-0.6694,-0.6749,-0.6782,-0.6783,-0.6796,-0.6795,-0.6801,-0.6715,-0.6699,-0.6795,-0.6795,-0.6795,-0.6795,-0.6795,-0.6795,-0.622,-0.629,-0.6302,-0.6388,-0.6413,-0.6474,-0.65,-0.6534,-0.6565,-0.6639,-0.6684,-0.6704,-0.674,-0.6797,-0.6846,-0.6854,-0.6875,-0.689,-0.6897,-0.6817,-0.6807,-0.6797,-0.6782,-0.6894,-0.6894,-0.698,-0.698,-0.6981]},{"header":{"parameterUnit":"m.s-1","parameterCategory":1,"la1":30.2991,"la2":30.254,"lo1":-89.0895,"lo2":-89.0444,"dy":0.0017,"dx":0.0017,"nx":28,"ny":28,"refTime":"2025-01-15T03:00:00:Z","depth":0,"parameterNumber":3,"parameterNumberName":"V-component_of_WINDS"},"data":[0,0,0,0,0,0,0,0,0,0,0,0,0,0,0,0,0,0,0,0,0,0,0,0,0,0,0,0,0,0,0,0,0,0,0,0,0,0,0,0,0,0,0,0,0,0,0,0,0,0,0,0,0,0,0,0,0,0,-2.1054,-2.1054,0,-2.1056,-2.1056,-2.1056,-2.0988,-2.0986,-2.0984,-2.0982,-2.0985,-2.0987,-2.0989,0,0,0,0,0,0,0,0,0,0,0,0,0,-2.0988,-2.099,-2.1054,-2.1054,-2.1054,-2.1056,-2.1056,-2.1056,-2.0988,-2.0986,-2.0984,-2.0982,-2.0985,-2.0987,-2.0989,0,0,0,0,0,0,0,0,0,0,0,0,0,-2.1007,-2.099,-2.1054,-2.102,-2.1017,-2.1056,-2.1056,-2.1056,-2.0989,-2.0986,-2.0983,-2.0981,-2.0984,-2.0987,-2.0989,-2.1061,0,0,-2.0998,-2.0999,0,0,0,0,0,0,0,0,-2.1006,-2.1009,-2.1025,-2.1022,-2.1019,-2.1019,-2.1034,-2.1058,-2.0989,-2.0999,-2.0982,-2.0979,-2.0999,-2.1,-2.1007,-2.1061,-2.1061,-2.0998,-2.0999,-2.1001,-2.1001,0,0,0,0,0,0,0,-2.1004,-2.1008,-2.1055,-2.1025,-2.1022,-2.1004,-2.1004,-2.1039,-2.1015,-2.0998,-2.0993,-2.0995,-2.0997,-2.1004,-2.1006,-2.1061,-2.0998,-2.1,-2.1002,-2.1003,-2.1173,-2.1176,0,0,0,0,0,0,-2.1008,-2.1008,-2.1055,-2.1055,-2.1005,-2.1008,-2.1007,-2.1022,-2.1014,-2.101,-2.0997,-2.0991,-2.1001,-2.1003,-2.1006,-2.1089,-2.1001,-2.1003,-2.1005,-2.1171,-2.1174,-2.1177,0,0,0,0,0,0,-2.1007,-2.1013,-2.1055,-2.103,-2.1034,-2.1012,-2.1029,-2.1023,-2.1031,-2.1013,-2.1008,-2.1009,-2.0999,-2.1002,-2.1048,-2.1088,-2.1004,-2.1007,-2.1167,-2.1172,-2.1176,-2.1255,0,0,0,0,0,0,-2.1005,-2.1013,-2.104,-2.1031,-2.1036,-2.1097,-2.1031,-2.1025,-2.1036,-2.1028,-2.1023,-2.102,-2.0997,-2.1044,-2.105,-2.109,-2.1009,-2.1163,-2.1169,-2.1174,-2.1249,-2.1262,-2.1273,0,0,0,0,0,-2.1003,-2.1063,-2.1042,-2.1048,-2.1069,-2.1099,-2.1102,-2.1074,-2.1039,-2.1066,-2.1054,-2.102,-2.1082,-2.1049,-2.1056,-2.1097,-2.1161,-2.1168,-2.1174,-2.1244,-2.1259,-2.1273,0,0,0,0,0,0,-2.1077,-2.1061,-2.1038,-2.1096,-2.11,-2.1087,-2.1121,-2.1092,-2.1105,-2.1098,-2.1064,-2.1063,-2.1114,-2.111,-2.1073,-2.1165,-2.1115,-2.1124,-2.1166,-2.1181,-2.1193,-2.1192,-2.1011,0,0,0,0,0,-2.1101,-2.1126,-2.111,-2.1164,-2.1166,-2.1144,-2.1155,-2.1134,-2.1136,-2.1137,-2.1129,-2.1132,-2.1152,-2.1166,-2.1184,-2.1248,-2.1245,-2.1279,-2.1291,-2.1301,-2.1309,-2.1341,-2.1356,-2.1199,-2.1199,-2.1199,0,0,-2.1149,-2.1143,-2.1161,-2.1178,-2.1178,-2.1205,-2.1145,-2.1177,-2.1196,-2.1142,-2.1184,-2.1178,-2.1179,-2.1234,-2.1258,-2.1232,-2.1351,-2.131,-2.1318,-2.132,-2.135,-2.1365,-2.1378,-2.1203,-2.1203,-2.1202,0,0,-2.125,-2.1249,-2.1292,-2.1293,-2.1294,-2.1278,-2.1289,-2.1281,-2.1275,-2.1316,-2.1276,-2.1298,-2.1334,-2.1336,-2.1342,-2.1443,-2.1411,-2.145,-2.1512,-2.1545,-2.1557,-2.1568,-2.1603,-2.1617,-2.1457,-2.1458,-2.1458,0,-2.131,-2.1349,-2.1319,-2.1352,-2.136,-2.1312,-2.1356,-2.1358,-2.1365,-2.1371,-2.1343,-2.1386,-2.1383,-2.1437,-2.1462,-2.1468,-2.1479,-2.145,-2.1558,-2.1568,-2.1578,-2.1611,-2.1625,-2.1462,-2.1462,-2.1461,-2.1461,0,-2.1423,-2.145,-2.1485,-2.1492,-2.1504,-2.1543,-2.1518,-2.1533,-2.1511,-2.1498,-2.154,-2.1535,-2.1551,-2.1562,-2.154,-2.1613,-2.1597,-2.1564,-2.1513,-2.1598,-2.1629,-2.1641,-2.1469,-2.1467,-2.1466,-2.1465,0,0,-2.1572,-2.156,-2.1574,-2.1576,-2.1572,-2.1593,-2.1629,-2.1643,-2.1657,-2.1663,-2.1692,-2.1723,-2.1692,-2.1698,-2.1676,-2.1705,-2.1784,-2.1667,-2.1667,-2.1689,-2.1863,-2.1888,-2.1904,-2.1763,-2.1765,-2.1767,-2.1863,0,-2.167,-2.1731,-2.1704,-2.1767,-2.1791,-2.1745,-2.1776,-2.1777,-2.1766,-2.1785,-2.1772,-2.1794,-2.1752,-2.1755,-2.1781,-2.1769,-2.1819,-2.1762,-2.1789,-2.1791,-2.1791,-2.192,-2.1947,-2.2037,-2.1875,-2.1877,-2.1878,0,-2.1793,-2.1803,-2.1869,-2.186,-2.1869,-2.1898,-2.1908,-2.1927,-2.1927,-2.1917,-2.1924,-2.1895,-2.1929,-2.1878,-2.1924,-2.1886,-2.1896,-2.1891,-2.1894,-2.1896,-2.184,-2.1925,-2.2065,-2.2079,-2.1897,-2.1896,-2.1894,0,-2.1895,-2.1925,-2.1968,-2.1971,-2.1962,-2.1983,-2.198,-2.1977,-2.1987,-2.1996,-2.2002,-2.2016,-2.2023,-2.2034,-2.2009,-2.1975,-2.2059,-2.2006,-2.2051,-2.2051,-2.2071,-2.207,-2.2215,-2.2077,-2.2077,-2.2077,-2.2076,0,-2.2007,-2.205,-2.2013,-2.204,-2.2085,-2.2053,-2.2099,-2.2091,-2.2088,-2.2112,-2.2073,-2.2096,-2.2062,-2.2082,-2.2063,-2.2103,-2.2107,-2.2099,-2.2094,-2.2103,-2.2104,-2.2109,-2.2102,-2.208,-2.208,-2.2079,-2.2078,0,-2.2129,-2.2107,-2.215,-2.2137,-2.2135,-2.2169,-2.2157,-2.2181,-2.2167,-2.2197,-2.2202,-2.218,-2.2201,-2.2177,-2.2197,-2.2184,-2.2239,-2.2224,-2.2239,-2.2235,-2.228,-2.2276,-2.2434,-2.2453,-2.2303,-2.2305,-2.2306,0,-2.2202,-2.2233,-2.2223,-2.2236,-2.2235,-2.2257,-2.2267,-2.2236,-2.2248,-2.2249,-2.2273,-2.229,-2.2303,-2.2338,-2.2324,-2.2338,-2.2323,-2.2377,-2.2325,-2.2333,-2.2324,-2.2322,-2.2325,-2.2388,-2.239,-2.2391,-2.2393,0,-2.2335,-2.2322,-2.2337,-2.2349,-2.2362,-2.237,-2.2374,-2.2387,-2.2355,-2.237,-2.2391,-2.2401,-2.242,-2.2438,-2.2448,-2.2444,-2.2413,-2.2409,-2.242,-2.243,-2.2437,-2.2433,-2.2268,-2.2406,-2.2404,-2.2403,-2.2403,-2.2402,-2.2434,-2.2459,-2.2455,-2.2474,-2.2474,-2.2479,-2.25,-2.2488,-2.2505,-2.2518,-2.2498,-2.2524,-2.2522,-2.2532,-2.2532,-2.2552,-2.2529,-2.2545,-2.2549,-2.2554,-2.256,-2.2434,-2.2554,-2.2553,-2.2553,-2.2553,-2.2552,0,-2.2564,-2.2559,-2.2576,-2.2584,-2.2598,-2.2567,-2.257,-2.2584,-2.2607,-2.2608,-2.2621,-2.2644,-2.2661,-2.2647,-2.2661,-2.268,-2.2666,-2.2684,-2.2683,-2.2682,-2.258,-2.2569,-2.2695,-2.2695,-2.2695,-2.2695,-2.2695,-2.2695,-2.2633,-2.2673,-2.266,-2.27,-2.2694,-2.2719,-2.2723,-2.2728,-2.2728,-2.2756,-2.2769,-2.276,-2.2755,-2.2768,-2.2782,-2.2777,-2.2784,-2.2808,-2.2798,-2.2704,-2.269,-2.2676,-2.2665,-2.281,-2.281,-2.2898,-2.2899,-2.29]}]]